Temperature
22 21 21 20 19 19 20 21 22 21 20 20 20 20 19 19 19 18 19 19 19 18 18 18 18 18 18 18 18 18 18 18 18 18 18 18 18 18 18 18 18 18 18 18 18 18 18 18 18
22 21 21 20 19 19 20 21 21 21 21 21 21 20 19 18 18 19 19 18 18 18 18 18 18 18 18 18 18 18 18 18 18 18 18 18 18 18 18 18 18 18 18 18 18 18 18 18 18
22 21 21 19 19 20 21 21 21 21 21 21 21 20 19 18 19 19 19 19 19 19 19 18 18 18 18 18 18 18 18 18 18 18 18 18 18 18 18 18 18 18 18 18 18 18 18 18 18
22 22 21 20 21 21 21 21 22 21 21 21 20 19 19 19 19 19 19 19 19 19 19 18 18 18 18 18 18 18 18 18 18 18 18 18 18 18 18 18 18 18 18 18 18 18 18 18 18
22 22 20 20 21 22 22 22 22 21 21 21 20 19 19 19 19 19 19 19 19 19 19 19 18 18 18 18 18 18 18 18 18 18 18 18 18 18 18 18 18 18 18 18 18 18 18 18 18
23 21 20 20 22 22 22 22 22 21 21 21 20 19 19 19 19 19 19 19 19 19 19 19 18 18 18 18 18 18 18 18 18 18 18 18 18 18 18 18 18 18 18 18 18 18 18 18 18
22 20 21 21 21 22 22 22 22 21 21 21 20 19 19 19 19 19 19 19 19 19 19 19 18 18 18 18 18 18 18 18 18 18 18 18 18 18 18 18 18 18 18 18 18 18 18 18 18
23 20 21 21 22 22 23 22 22 21 21 21 21 19 19 19 19 19 19 19 19 19 19 19 18 19 19 18 18 18 18 18 18 18 18 18 18 18 18 18 18 18 18 18 18 18 18 18 18
23 20 21 22 22 22 23 22 22 22 21 21 21 20 20 20 19 19 19 19 19 19 19 19 19 19 19 18 18 18 18 18 18 18 18 18 18 18 18 18 18 18 18 18 18 18 18 18 18
23 21 22 23 22 22 23 22 22 22 21 21 21 20 20 20 19 19 19 19 19 19 19 19 19 19 19 19 19 18 18 18 18 18 18 18 18 18 18 18 18 18 18 18 18 18 18 18 18
23 22 23 24 24 24 23 23 22 21 20 21 21 20 20 20 19 19 19 19 19 19 19 19 19 19 19 19 19 18 18 18 18 18 18 18 18 18 18 18 18 18 18 18 18 18 18 18 18
23 24 24 24 24 24 23 23 22 22 22 22 21 21 20 20 20 20 19 19 19 19 19 19 19 19 19 19 18 18 18 18 18 18 18 18 18 18 18 18 18 18 18 18 18 18 18 18 18
24 24 25 25 24 24 23 23 22 22 22 22 21 21 20 20 20 20 20 19 19 19 19 19 19 19 19 19 18 18 18 18 18 18 18 18 18 18 18 18 18 18 18 18 18 18 18 18 18
25 24 24 24 24 24 23 22 22 21 22 21 21 20 20 20 20 20 20 20 19 19 19 19 19 19 19 19 18 18 18 18 18 18 18 18 18 18 18 18 18 18 18 18 18 18 18 18 18
25 24 24 24 24 24 23 22 22 22 22 21 21 20 20 20 20 20 20 20 20 20 19 19 19 19 19 19 18 18 18 18 18 18 18 18 18 18 18 18 18 18 18 18 18 18 18 18 17
24 23 23 24 24 23 23 22 22 22 21 21 21 20 20 20 20 20 20 20 20 20 19 19 19 19 19 19 18 18 18 18 18 18 18 18 18 18 18 18 18 18 18 18 18 18 18 18 17
22 22 23 24 24 23 23 22 22 22 21 21 21 21 20 20 20 20 20 20 20 20 19 19 19 19 19 19 18 18 18 18 18 18 18 18 18 18 18 18 18 18 18 18 18 18 18 18 17
23 23 23 23 24 23 22 22 22 22 21 21 21 21 21 21 21 21 20 20 20 20 20 19 19 19 19 19 18 18 18 18 18 18 18 18 18 18 18 18 18 18 18 18 18 18 18 17 17
24 24 24 24 24 23 22 22 21 21 21 21 21 21 21 21 21 21 21 20 20 20 20 19 19 19 19 19 18 18 18 18 18 18 18 18 18 18 18 18 18 18 18 18 18 18 18 17 17
24 24 24 24 24 23 22 22 22 21 21 21 21 21 21 21 21 21 21 20 20 20 20 19 19 19 19 19 19 18 18 18 18 18 18 18 18 18 18 18 18 18 18 18 18 18 18 17 17
24 24 24 24 23 23 23 22 21 21 22 22 21 21 21 21 21 21 21 21 20 20 20 20 19 19 19 19 19 18 18 18 18 18 18 18 18 18 18 18 18 18 18 18 18 18 18 17 17
24 24 24 24 22 21 23 21 21 21 20 21 21 21 21 22 22 21 21 21 21 21 20 20 20 19 19 19 19 19 19 19 18 18 18 18 18 18 18 18 18 18 18 18 18 18 18 17 17
24 25 24 23 22 21 21 21 21 20 20 21 21 22 22 22 22 22 22 21 21 21 20 20 20 20 19 19 19 19 19 19 18 18 18 18 18 18 18 18 18 18 18 18 18 18 17 17 17
25 23 22 20 20 21 21 21 21 20 21 21 22 22 22 22 22 22 22 22 21 21 20 20 20 20 20 19 19 19 19 19 18 18 18 18 18 18 18 18 18 18 18 18 18 17 17 17 17
24 22 21 21 20 20 20 21 21 22 21 22 22 23 23 22 22 22 22 22 21 21 21 20 20 20 20 20 19 19 19 19 19 18 18 18 18 18 18 18 18 18 18 18 17 17 17 17 17
22 22 21 22 21 20 21 21 22 23 23 23 23 23 23 22 23 23 22 22 22 21 21 21 21 20 20 20 20 19 19 19 19 18 18 18 18 18 18 18 18 18 18 18 17 17 17 17 17
22 21 21 20 20 21 20 21 22 23 22 22 23 23 23 23 23 23 23 23 22 22 21 21 21 20 20 20 20 20 19 19 19 18 18 18 18 18 18 18 18 18 18 18 17 17 17 17 17
22 20 18 19 20 21 22 22 22 23 22 22 21 22 22 23 23 23 23 23 23 22 22 21 21 21 21 20 20 20 20 19 19 19 18 18 18 18 18 18 18 18 18 17 17 17 17 17 17
22 20 18 17 19 20 21 22 22 22 21 21 21 22 23 23 23 23 23 23 23 22 22 21 21 21 20 20 20 20 20 19 19 19 19 18 18 18 18 18 18 18 18 17 17 17 17 17 17
22 20 18 20 19 18 19 21 23 21 21 21 22 23 23 23 23 24 23 23 23 22 21 21 21 21 21 20 20 20 20 20 19 19 19 19 18 18 18 18 18 18 18 17 17 17 17 17 17
Wind_Speed
8 6 3 1 4 5 4 3 2 3 3 3 5 5 5 3 2 1 1 2 2 2 1 5 7 9 10 11 12 12 12 13 14 14 14 15 15 16 15 15 15 14 14 13 13 13 13 13 13
6 5 1 3 5 4 3 3 3 3 4 4 5 5 5 4 3 3 1 1 2 2 3 5 8 8 10 11 11 12 12 13 13 14 14 14 15 15 15 14 14 13 13 12 12 12 13 13 13
6 3 2 4 4 3 1 2 4 5 4 3 4 5 4 2 2 2 1 2 2 3 3 5 8 8 9 10 10 11 12 12 13 13 13 14 14 14 14 13 13 12 12 12 12 12 12 12 12
3 2 3 5 5 1 2 3 4 4 5 6 4 5 4 3 2 3 4 4 3 3 3 4 7 8 9 9 10 10 11 11 12 12 13 13 13 13 13 12 12 11 11 11 11 11 11 11 11
2 3 6 5 4 2 3 4 3 4 4 5 5 5 4 4 6 7 5 4 4 2 2 4 7 8 8 9 9 10 10 11 11 12 12 12 11 12 12 12 11 10 10 10 9 9 9 9 10
3 4 5 3 3 3 3 3 5 6 5 5 5 4 3 3 5 5 5 4 3 3 3 3 6 7 8 8 8 9 10 11 11 11 11 11 10 10 11 10 10 10 9 9 9 8 7 8 9
3 4 4 3 2 2 2 2 4 5 5 3 3 4 2 2 3 5 5 4 4 4 3 3 4 5 7 8 8 8 9 10 10 11 10 10 10 10 9 9 9 9 8 8 7 7 6 8 8
4 4 4 2 3 1 3 3 4 5 4 3 4 5 3 3 5 6 6 5 4 4 4 4 4 4 4 5 6 7 8 9 10 10 9 9 8 9 8 8 7 7 7 6 6 6 6 7 7
3 5 2 3 4 2 4 4 3 4 6 3 3 4 4 8 9 7 5 4 3 2 3 3 3 3 3 3 4 5 7 8 8 7 7 7 5 6 5 6 6 5 5 5 5 5 5 6 5
4 3 4 4 5 5 5 5 5 5 5 3 5 7 9 10 8 6 5 4 2 1 1 2 2 1 1 2 3 4 5 5 5 4 4 5 4 4 3 3 4 4 4 4 3 4 5 4 3
3 4 2 2 4 6 6 4 4 7 3 4 8 10 10 9 7 5 4 4 3 2 1 1 1 1 2 2 2 2 3 4 3 3 3 4 3 2 2 2 2 2 2 2 3 3 3 3 2
3 1 3 3 5 6 6 5 4 4 4 6 10 11 10 8 7 6 6 4 2 2 1 1 2 2 1 1 2 2 2 2 2 2 2 3 2 1 1 1 1 1 1 2 2 2 2 2 1
2 1 3 5 7 7 7 6 5 3 6 9 10 9 9 8 5 4 4 4 3 3 2 2 2 2 2 2 1 2 2 1 2 2 2 3 2 1 1 1 0 0 1 1 1 2 2 2 2
2 5 5 5 6 4 7 4 4 4 7 9 9 8 7 7 6 4 4 4 4 4 3 3 3 3 3 2 1 1 1 2 2 1 2 3 3 2 1 1 0 0 1 1 1 1 1 1 1
6 7 6 3 3 3 7 3 1 6 9 8 8 7 6 5 5 5 6 5 5 5 4 3 4 3 3 2 2 1 2 2 1 1 1 2 3 3 2 1 0 0 1 1 2 1 1 1 1
5 5 2 2 2 3 6 2 3 7 9 8 7 7 6 5 5 5 5 4 5 5 4 3 4 4 3 3 2 2 2 2 1 1 1 2 2 3 3 2 1 1 2 1 1 1 2 1 1
4 2 2 2 2 4 4 4 5 7 9 8 7 6 6 5 4 4 5 5 5 5 5 4 4 5 4 3 3 3 3 3 2 2 2 1 1 2 3 2 1 2 2 1 1 2 1 1 1
4 3 3 4 4 4 3 4 6 9 9 9 7 7 6 7 7 5 5 5 5 5 5 5 4 4 4 3 3 3 3 2 2 2 1 1 2 2 3 2 2 2 2 1 2 2 2 2 2
6 5 4 4 4 4 5 4 6 9 9 9 8 8 8 8 6 5 5 5 5 4 5 4 4 3 4 3 3 3 1 1 1 1 1 1 2 2 3 2 2 2 2 2 2 2 3 2 2
4 3 2 1 2 3 2 4 5 9 13 12 11 10 10 7 5 6 6 6 6 6 6 5 4 4 3 3 3 2 2 1 1 1 2 2 2 2 2 2 2 2 2 2 2 2 2 2 1
2 5 5 3 2 3 3 4 4 5 7 7 8 9 9 10 10 8 8 8 7 7 7 6 5 4 4 4 3 3 3 2 2 2 2 2 1 2 1 1 2 2 2 2 2 2 3 2 1
4 5 5 5 4 1 2 3 7 6 7 10 11 11 11 11 10 9 9 9 9 8 7 6 6 5 4 5 4 4 3 2 1 1 0 2 2 1 1 1 2 1 2 2 1 2 2 3 2
6 3 4 3 4 2 1 2 8 2 8 13 14 14 13 12 12 12 12 11 9 8 8 7 6 5 5 5 5 5 3 2 1 1 1 1 2 1 1 1 2 1 1 2 2 2 2 2 2
5 7 7 6 5 1 4 4 7 6 10 10 12 14 14 13 12 12 11 9 8 7 7 7 7 5 5 5 5 5 5 4 3 1 1 0 1 1 1 2 2 1 1 2 2 2 2 2 2
6 6 4 3 2 6 2 4 9 9 9 11 11 13 13 13 12 11 11 11 10 10 9 8 8 7 6 5 5 5 5 5 5 3 2 1 0 0 0 1 1 1 1 2 2 2 2 2 2
5 9 8 6 5 5 1 6 8 8 7 7 7 8 10 12 12 12 13 13 12 12 10 10 9 8 7 6 5 4 5 4 3 3 3 2 2 1 1 1 1 1 1 2 2 2 2 2 2
6 4 6 7 3 1 5 7 9 4 1 2 4 6 9 12 12 12 12 12 12 12 12 11 10 8 8 7 6 5 5 5 4 3 3 2 2 1 2 2 2 2 2 2 3 2 2 2 2
5 8 6 6 5 3 5 5 5 6 4 3 5 7 8 9 10 11 11 12 12 12 10 10 9 10 8 7 7 6 5 5 4 4 3 3 2 2 2 2 2 2 2 2 3 2 2 2 1
4 5 5 5 5 6 3 7 7 8 8 7 8 8 9 10 11 11 11 11 11 10 10 10 9 8 8 8 7 6 5 5 4 4 4 3 2 2 3 2 2 2 2 2 2 2 2 2 1
5 6 7 5 3 4 4 8 5 6 6 6 7 6 6 8 9 9 10 9 10 10 10 10 10 9 8 8 7 7 5 5 5 4 4 4 3 3 3 2 2 2 2 2 3 2 2 2 2
Wind_Direction
159 153 148 119 55 50 33 3 24 46 45 52 71 77 83 61 73 125 333 60 74 56 77 105 104 103 106 112 114 115 116 118 119 120 122 122 123 124 124 125 124 123 122 123 124 125 126 124 124
151 156 140 63 71 57 3 353 54 55 117 122 77 69 64 51 49 90 62 65 74 78 92 105 106 105 110 112 114 116 116 118 120 121 121 122 125 125 127 126 124 123 122 124 126 126 127 127 128
163 171 86 64 74 112 106 32 88 83 85 71 69 55 63 59 73 109 149 122 76 70 84 110 109 109 114 112 113 116 117 118 121 122 122 124 126 126 127 125 123 122 122 124 126 127 129 131 133
152 64 56 63 59 45 154 132 112 97 56 46 77 63 55 55 112 127 127 119 93 65 82 109 108 110 117 117 118 119 120 120 121 122 122 125 127 127 126 124 122 122 122 122 123 126 131 134 139
81 75 55 45 31 32 90 119 101 74 65 56 70 76 41 25 84 103 109 108 100 74 79 116 110 113 121 120 121 120 121 120 120 122 122 125 127 128 127 124 124 125 124 121 117 121 130 137 143
54 64 69 56 37 43 82 94 85 79 80 76 75 77 34 65 95 108 108 104 94 88 75 100 110 115 123 124 122 122 123 124 123 123 124 126 129 130 126 125 125 125 124 121 120 120 135 145 147
94 80 96 98 80 68 120 101 93 98 87 82 98 85 49 85 104 105 95 84 68 67 67 61 81 108 122 126 126 126 129 132 130 127 126 128 129 130 128 127 125 123 122 123 123 120 126 146 148
121 96 80 92 121 140 136 104 96 99 95 105 99 118 165 174 114 95 80 71 63 54 51 48 48 66 91 115 127 130 133 136 135 133 131 128 125 125 126 125 124 124 124 123 122 113 107 129 137
98 75 112 179 162 165 142 115 109 82 99 94 87 123 139 127 115 101 87 68 62 62 41 46 46 50 68 98 121 121 128 133 135 136 135 127 113 110 116 124 129 129 128 124 118 112 102 102 112
95 115 199 194 167 152 140 127 131 106 104 88 82 89 109 121 124 126 130 134 139 159 55 62 64 59 63 96 89 88 97 106 113 118 115 112 111 112 113 121 127 127 116 108 102 94 88 80 77
133 159 177 149 143 133 129 121 112 126 150 174 149 137 132 132 136 146 157 163 182 189 161 125 120 93 84 61 81 88 95 98 105 112 110 110 105 105 88 76 73 78 82 78 70 70 73 72 76
127 190 146 136 124 121 132 129 112 141 182 149 142 141 141 146 158 169 173 179 173 165 191 153 131 106 110 102 87 98 104 113 125 125 127 130 119 97 84 74 59 61 80 75 67 64 58 52 54
113 72 74 106 108 113 108 111 123 128 117 117 125 134 147 159 168 176 175 174 165 176 193 170 139 140 134 116 118 120 131 147 156 150 152 154 149 142 145 148 92 90 132 124 93 69 53 44 30
113 86 81 89 98 107 111 103 101 138 128 126 137 150 162 168 169 160 165 181 181 181 186 168 146 145 134 133 138 121 148 157 144 164 172 165 173 166 141 107 90 96 160 165 147 122 90 55 36
91 81 62 59 84 112 104 65 144 155 138 142 156 162 166 175 170 175 184 188 183 177 174 162 150 133 135 143 149 134 149 140 144 167 154 162 174 171 154 138 135 185 157 127 114 100 93 75 56
64 72 78 279 119 126 114 189 194 158 149 162 172 173 175 187 187 186 181 179 173 162 156 158 148 130 133 130 124 114 127 134 142 139 132 144 160 156 148 147 170 167 141 123 116 107 96 80 74
52 122 191 244 197 152 146 203 187 165 162 176 186 186 185 189 196 192 182 173 167 161 151 144 128 132 136 126 112 101 97 94 99 103 112 121 132 145 148 147 154 147 124 108 132 103 117 114 100
198 182 188 202 213 160 182 213 179 175 176 187 191 194 193 197 206 194 179 167 158 151 142 140 132 130 125 108 91 76 69 61 72 85 96 100 116 136 136 130 130 131 113 96 102 104 98 102 109
165 167 201 219 194 165 203 216 195 183 189 196 198 200 204 210 206 183 172 162 153 147 148 152 145 138 125 111 112 104 97 63 47 54 46 69 91 105 117 115 119 121 119 122 119 108 94 79 93
150 163 215 313 140 161 209 246 214 194 202 201 200 204 206 206 191 184 176 168 170 172 172 167 163 156 151 139 131 132 128 119 101 40 44 53 75 91 107 122 134 132 119 99 101 106 109 87 88
186 190 201 190 85 66 91 318 239 223 214 212 209 207 206 205 197 192 186 182 177 181 183 182 175 169 163 147 115 97 80 64 55 39 22 16 47 79 102 123 128 128 135 139 136 133 131 125 92
229 223 184 160 122 261 127 269 271 222 222 219 216 212 210 207 199 193 191 189 187 189 182 176 175 171 163 150 142 137 139 144 172 141 64 12 29 62 91 94 113 124 131 138 155 136 125 128 133
200 149 136 128 121 63 56 187 283 223 231 231 220 215 211 206 200 196 196 195 192 183 175 174 172 170 165 159 157 147 146 156 132 95 74 35 18 16 53 110 117 114 125 135 124 123 128 135 141
133 81 66 56 76 286 224 181 274 227 221 227 219 214 208 204 201 200 195 186 184 176 169 167 172 178 170 164 162 161 162 159 148 140 131 26 2 359 34 102 112 125 135 143 149 137 130 133 129
111 101 50 9 6 252 228 187 250 247 228 220 218 213 205 199 198 196 188 186 182 178 175 172 175 183 177 170 173 175 174 170 174 179 181 177 253 306 313 111 120 132 152 153 141 128 130 143 144
168 144 158 190 217 269 244 230 254 266 250 224 214 203 192 192 197 197 192 189 186 182 179 176 179 185 181 179 183 179 174 171 178 183 180 186 204 227 202 152 147 144 135 130 129 121 135 131 143
138 169 161 137 157 244 273 280 301 315 306 195 181 178 189 194 195 193 188 187 186 184 185 184 181 184 185 185 181 179 177 176 179 181 180 187 205 195 165 146 133 122 118 120 123 120 125 126 132
132 140 106 127 152 233 285 275 255 273 260 229 194 196 200 196 196 192 187 189 188 186 184 181 182 185 184 182 187 190 184 182 180 178 188 192 191 176 155 149 145 137 132 130 125 124 125 123 127
107 98 105 114 147 160 240 270 228 223 222 215 218 212 202 197 197 194 191 188 183 178 178 179 181 181 183 184 185 181 179 178 176 185 197 196 187 180 180 180 172 168 163 153 147 156 145 146 139
145 152 143 150 197 170 184 263 269 225 222 212 217 213 202 198 196 190 184 179 177 178 181 185 185 187 189 185 181 184 179 173 181 197 201 191 191 193 192 185 183 189 184 172 176 188 177 175 179
Height
1484 1484 1485 1487 1490 1500 1503 1498 1493 1492 1493 1493 1493 1493 1495 1497 1500 1504 1500 1497 1497 1497 1496 1496 1494 1494 1495 1496 1497 1499 1501 1502 1503 1504 1506 1507 1509 1510 1512 1514 1516 1518 1520 1522 1524 1526 1527 1529 1531
1484 1485 1487 1488 1498 1512 1508 1497 1495 1494 1494 1494 1495 1495 1496 1498 1499 1499 1499 1499 1499 1499 1499 1498 1497 1498 1498 1499 1501 1502 1503 1504 1506 1507 1508 1510 1511 1513 1514 1516 1518 1520 1522 1524 1526 1527 1529 1531 1532
1485 1486 1489 1491 1502 1510 1506 1497 1496 1495 1495 1495 1497 1498 1499 1500 1500 1501 1501 1501 1501 1501 1501 1500 1500 1500 1501 1502 1503 1504 1505 1507 1508 1509 1511 1512 1514 1515 1517 1519 1520 1522 1524 1525 1527 1529 1530 1532 1533
1487 1488 1490 1497 1503 1501 1498 1497 1496 1496 1496 1497 1498 1500 1502 1503 1503 1503 1503 1503 1503 1503 1503 1503 1503 1503 1504 1505 1506 1507 1508 1509 1510 1511 1513 1515 1516 1518 1519 1521 1522 1524 1526 1527 1528 1530 1531 1533 1534
1488 1489 1497 1505 1503 1499 1497 1497 1497 1497 1498 1500 1499 1502 1504 1506 1505 1505 1505 1505 1505 1505 1505 1506 1505 1505 1506 1507 1508 1509 1510 1511 1512 1514 1516 1517 1519 1520 1521 1523 1524 1526 1527 1528 1529 1530 1532 1533 1535
1490 1491 1506 1511 1505 1500 1499 1499 1499 1500 1501 1502 1502 1504 1507 1508 1507 1507 1507 1508 1508 1507 1507 1508 1508 1508 1508 1509 1510 1511 1512 1513 1514 1516 1518 1519 1521 1522 1524 1525 1526 1528 1529 1530 1531 1531 1531 1532 1535
1492 1497 1506 1507 1507 1503 1501 1501 1501 1502 1503 1504 1504 1506 1508 1509 1510 1510 1510 1510 1510 1510 1510 1510 1510 1510 1510 1511 1511 1512 1513 1515 1516 1518 1520 1521 1523 1524 1526 1527 1529 1530 1531 1531 1532 1531 1528 1529 1533
1492 1497 1505 1507 1507 1505 1501 1502 1503 1503 1505 1506 1506 1507 1509 1511 1512 1512 1512 1512 1512 1513 1513 1513 1513 1513 1513 1513 1513 1513 1514 1516 1518 1520 1522 1523 1525 1526 1528 1529 1531 1532 1533 1533 1534 1533 1530 1531 1535
1493 1502 1509 1506 1505 1503 1501 1502 1505 1506 1506 1507 1508 1509 1511 1512 1513 1514 1514 1515 1515 1515 1515 1516 1515 1515 1516 1516 1516 1515 1516 1517 1520 1522 1525 1526 1527 1529 1530 1531 1533 1534 1535 1535 1535 1535 1535 1536 1538
1494 1505 1503 1498 1498 1499 1501 1503 1504 1507 1508 1509 1509 1511 1512 1513 1514 1515 1516 1516 1516 1517 1517 1518 1518 1518 1518 1518 1518 1518 1519 1520 1523 1525 1527 1528 1530 1531 1533 1534 1535 1535 1536 1537 1537 1538 1538 1539 1541
1493 1498 1496 1495 1496 1498 1501 1504 1505 1507 1509 1509 1509 1511 1513 1515 1516 1517 1518 1518 1519 1519 1519 1520 1520 1521 1521 1521 1522 1522 1523 1524 1526 1528 1529 1531 1532 1534 1535 1536 1536 1537 1538 1539 1539 1540 1541 1541 1542
1494 1494 1494 1496 1497 1499 1502 1504 1506 1507 1508 1509 1511 1513 1514 1516 1517 1518 1519 1520 1521 1521 1522 1522 1523 1523 1524 1524 1525 1525 1526 1528 1529 1530 1532 1533 1534 1536 1537 1537 1538 1539 1540 1540 1541 1541 1542 1543 1543
1494 1495 1495 1496 1498 1500 1502 1505 1506 1508 1509 1511 1513 1515 1516 1517 1519 1520 1521 1522 1522 1523 1523 1524 1525 1525 1526 1527 1527 1528 1529 1530 1531 1533 1534 1535 1536 1537 1538 1539 1540 1540 1541 1542 1542 1543 1543 1544 1544
1495 1496 1498 1499 1500 1502 1504 1507 1508 1510 1511 1513 1515 1516 1517 1518 1519 1520 1522 1522 1523 1523 1525 1526 1526 1527 1528 1529 1530 1531 1532 1533 1534 1535 1536 1537 1538 1539 1540 1540 1541 1541 1542 1542 1543 1543 1544 1544 1544
1496 1499 1502 1503 1502 1504 1506 1511 1510 1511 1512 1514 1516 1517 1519 1519 1520 1521 1522 1523 1524 1525 1526 1527 1528 1529 1530 1531 1532 1533 1534 1535 1535 1536 1537 1538 1539 1540 1540 1541 1541 1542 1542 1543 1543 1543 1544 1544 1544
1499 1506 1513 1506 1504 1505 1511 1519 1511 1512 1513 1515 1517 1518 1519 1520 1521 1522 1523 1523 1525 1526 1527 1528 1530 1530 1531 1532 1533 1534 1535 1536 1537 1538 1539 1539 1540 1541 1541 1542 1542 1542 1543 1543 1543 1544 1544 1544 1544
1509 1517 1515 1509 1504 1505 1510 1515 1510 1512 1514 1515 1517 1519 1520 1521 1522 1522 1523 1524 1525 1527 1528 1529 1531 1532 1533 1534 1535 1535 1537 1537 1538 1539 1540 1541 1541 1542 1542 1542 1543 1543 1543 1543 1544 1544 1544 1544 1544
1514 1514 1513 1512 1504 1506 1510 1511 1509 1511 1513 1514 1516 1518 1519 1520 1521 1522 1524 1525 1526 1528 1529 1530 1532 1533 1534 1535 1536 1537 1538 1538 1539 1540 1541 1541 1542 1543 1543 1543 1543 1544 1544 1544 1544 1544 1544 1544 1544
1502 1508 1511 1507 1501 1506 1510 1510 1509 1510 1512 1513 1515 1516 1517 1518 1521 1523 1524 1525 1527 1528 1530 1531 1532 1533 1534 1535 1536 1537 1538 1539 1540 1540 1541 1542 1543 1543 1544 1544 1544 1544 1544 1544 1544 1544 1544 1544 1544
1500 1507 1509 1505 1501 1506 1511 1511 1508 1508 1508 1509 1512 1514 1515 1517 1519 1521 1523 1525 1526 1528 1530 1531 1532 1534 1535 1536 1537 1538 1539 1540 1540 1541 1542 1543 1543 1544 1544 1544 1544 1544 1544 1544 1544 1544 1544 1544 1544
1502 1506 1507 1508 1506 1506 1511 1516 1510 1507 1507 1509 1510 1511 1513 1515 1516 1519 1521 1523 1525 1527 1529 1531 1532 1534 1535 1536 1537 1538 1539 1540 1541 1542 1543 1543 1544 1544 1544 1544 1544 1544 1544 1544 1544 1544 1544 1544 1544
1506 1497 1499 1504 1514 1522 1517 1532 1514 1507 1506 1505 1506 1508 1509 1511 1514 1516 1519 1521 1523 1526 1528 1530 1532 1533 1535 1536 1537 1538 1539 1540 1541 1542 1543 1543 1543 1544 1544 1544 1544 1543 1543 1543 1543 1543 1543 1543 1544
1496 1493 1499 1504 1514 1523 1521 1529 1519 1508 1507 1502 1500 1502 1504 1507 1510 1513 1516 1519 1522 1524 1527 1529 1531 1533 1534 1536 1537 1538 1539 1540 1541 1542 1543 1543 1543 1543 1544 1544 1543 1543 1543 1543 1543 1543 1543 1543 1543
1490 1498 1506 1514 1522 1534 1524 1529 1523 1509 1499 1494 1493 1496 1499 1503 1506 1509 1513 1517 1520 1523 1525 1527 1530 1532 1533 1535 1536 1538 1539 1540 1541 1542 1542 1543 1543 1543 1543 1543 1543 1543 1543 1543 1543 1543 1543 1543 1543
1493 1511 1531 1535 1542 1538 1521 1524 1516 1493 1487 1487 1488 1490 1494 1499 1502 1506 1509 1513 1516 1520 1523 1525 1528 1530 1532 1534 1535 1537 1538 1539 1540 1541 1542 1543 1543 1543 1543 1543 1543 1543 1543 1543 1543 1543 1543 1542 1542
1496 1505 1529 1541 1544 1535 1522 1522 1502 1485 1482 1482 1484 1487 1490 1494 1498 1502 1506 1509 1513 1516 1520 1523 1525 1528 1530 1532 1534 1536 1537 1538 1540 1541 1542 1542 1543 1543 1543 1543 1543 1543 1543 1543 1543 1543 1542 1542 1542
1497 1504 1504 1523 1529 1533 1527 1514 1495 1482 1481 1481 1482 1485 1487 1491 1494 1498 1502 1506 1510 1513 1517 1520 1523 1526 1528 1530 1533 1534 1536 1537 1539 1540 1541 1542 1542 1543 1543 1543 1543 1543 1543 1543 1542 1542 1542 1542 1542
1488 1497 1512 1523 1536 1538 1525 1516 1507 1489 1485 1482 1482 1483 1485 1488 1492 1495 1499 1503 1507 1510 1514 1518 1521 1524 1526 1529 1531 1533 1535 1536 1538 1539 1540 1541 1541 1542 1542 1542 1542 1542 1542 1542 1542 1542 1541 1541 1541
1493 1501 1510 1521 1523 1535 1534 1517 1486 1483 1480 1480 1480 1481 1482 1485 1488 1492 1496 1500 1504 1508 1511 1515 1519 1522 1524 1526 1529 1531 1533 1535 1536 1537 1539 1540 1540 1541 1541 1542 1541 1541 1541 1541 1541 1541 1541 1541 1540
1486 1494 1505 1517 1523 1527 1528 1513 1476 1476 1476 1476 1478 1479 1481 1483 1486 1490 1494 1497 1501 1505 1509 1512 1515 1519 1522 1525 1527 1529 1531 1533 1534 1536 1537 1538 1539 1540 1540 1540 1540 1540 1540 1540 1540 1540 1540 1540 1539